Location: الشقيري
(17.1356°N, 42.8272°E)
Time: 01:46:26
(UTC+00:00)

N. Korean satellite - Visible Passes

Search period start: 17 November 2019 00:00
Search period end: 27 November 2019 00:00
Orbit: 456 x 506 km, 97.2° (Epoch: 16 November)

Date Brightness Start Highest point End Pass type
(mag) Time Alt. Az. Time Alt. Az. Time Alt. Az.
17 Nov 8.4 02:25:45 10° NNE 02:29:08 36° E 02:32:28 10° SSE visible
18 Nov 10.0 02:01:37 10° ENE 02:03:43 15° E 02:05:49 10° SE visible
19 Nov 9.4 15:04:40 10° SSW 15:07:36 24° W 15:10:33 10° NW visible
20 Nov 6.9 02:42:42 10° NNE 02:46:20 73° E 02:49:54 10° S visible
21 Nov 9.0 02:17:51 10° NE 02:20:57 27° E 02:24:00 10° SSE visible
22 Nov 10.2 01:54:32 10° E 01:55:31 11° E 01:56:29 10° ESE visible
22 Nov 10.1 15:23:03 10° SW 15:24:48 13° W 15:26:34 10° WNW visible
23 Nov 8.8 14:56:08 10° SSW 14:59:22 32° W 15:02:40 10° NW visible
24 Nov 7.5 02:34:36 10° NNE 02:38:07 52° E 02:41:35 10° S visible
25 Nov 9.5 02:10:01 10° NE 02:12:43 20° E 02:15:22 10° SSE visible
26 Nov 9.8 15:14:04 10° SW 15:16:33 17° W 15:19:03 10° NW visible
